IBE0539 LEMD-LPPT

Flight info

Callsign IBE0539
Flight time 1h 0m
Altitude 33000
Route CCS DCT ELVAR DCT UPULO
Aircraft A321/M-SDE3FGHIRWY/LB1

Departure

Time 2026-05-06 21:08
Airport Adolfo Suárez Madrid–Barajas Airport (LEMD)

Arrival

Time 2026-05-06 22:09
Airport Lisbon Humberto Delgado Airport (LPPT)
Time Latitude Longitude Altitude Speed Heading
2026-05-06 20:31 40.49602 -3.58972 2023 ft 0 kts 270°
2026-05-06 20:59 40.49602 -3.58969 2032 ft 3 kts 270°
2026-05-06 20:59 40.49602 -3.58935 2022 ft 4 kts 270°
2026-05-06 21:00 40.49604 -3.58902 2026 ft 4 kts 240°
2026-05-06 21:00 40.49621 -3.58885 2025 ft 3 kts 182°
2026-05-06 21:00 40.49641 -3.58885 2022 ft 2 kts 180°
2026-05-06 21:00 40.49642 -3.58885 2022 ft 0 kts 180°
2026-05-06 21:03 40.49605 -3.58885 2022 ft 10 kts 180°
2026-05-06 21:03 40.49540 -3.58885 2026 ft 9 kts 180°
2026-05-06 21:04 40.49477 -3.58884 2027 ft 11 kts 179°
2026-05-06 21:04 40.49387 -3.58883 2029 ft 15 kts 179°
2026-05-06 21:04 40.49290 -3.58882 2027 ft 13 kts 179°
2026-05-06 21:04 40.49242 -3.58839 2024 ft 9 kts 99°
2026-05-06 21:05 40.49240 -3.58718 2028 ft 17 kts 89°
2026-05-06 21:05 40.49241 -3.58555 2017 ft 18 kts 90°
2026-05-06 21:05 40.49242 -3.58379 2011 ft 20 kts 90°
2026-05-06 21:05 40.49242 -3.58181 2005 ft 23 kts 90°
2026-05-06 21:06 40.49243 -3.57968 2000 ft 23 kts 90°
2026-05-06 21:06 40.49244 -3.57744 1991 ft 23 kts 90°
2026-05-06 21:06 40.49256 -3.57594 1989 ft 15 kts 70°
2026-05-06 21:06 40.49325 -3.57485 1984 ft 16 kts 33°
2026-05-06 21:07 40.49444 -3.57453 1986 ft 24 kts
2026-05-06 21:07 40.49837 -3.57456 1988 ft 89 kts 359°
2026-05-06 21:07 40.50636 -3.57462 1994 ft 141 kts 360°
2026-05-06 21:07 40.51760 -3.57471 2004 ft 180 kts 360°
2026-05-06 21:08 40.53025 -3.57486 2535 ft 182 kts 360°
2026-05-06 21:08 40.54299 -3.57511 3135 ft 184 kts
2026-05-06 21:08 40.55565 -3.57329 3730 ft 184 kts 18°
2026-05-06 21:08 40.56801 -3.56843 4219 ft 187 kts 16°
2026-05-06 21:09 40.58052 -3.56370 4719 ft 188 kts 16°
2026-05-06 21:09 40.59313 -3.55894 5188 ft 190 kts 17°
2026-05-06 21:09 40.60653 -3.55388 5338 ft 210 kts 16°
2026-05-06 21:09 40.62121 -3.54835 5479 ft 229 kts 16°
2026-05-06 21:10 40.63716 -3.54272 5674 ft 246 kts
2026-05-06 21:10 40.65444 -3.54101 6255 ft 251 kts
2026-05-06 21:10 40.67189 -3.53951 6917 ft 253 kts
2026-05-06 21:10 40.68941 -3.54200 7505 ft 257 kts 337°
2026-05-06 21:11 40.70362 -3.55598 8093 ft 260 kts 304°
2026-05-06 21:11 40.71047 -3.57782 8685 ft 262 kts 281°
2026-05-06 21:11 40.71236 -3.60172 9291 ft 264 kts 265°
2026-05-06 21:11 40.70899 -3.62546 9906 ft 265 kts 249°
2026-05-06 21:12 40.70060 -3.64697 10506 ft 267 kts 233°
2026-05-06 21:12 40.68880 -3.66662 10910 ft 277 kts 230°
2026-05-06 21:12 40.67673 -3.68611 11505 ft 279 kts 230°
2026-05-06 21:12 40.66437 -3.70599 12148 ft 280 kts 230°
2026-05-06 21:13 40.65329 -3.72713 12774 ft 282 kts 242°
2026-05-06 21:13 40.64461 -3.75101 13029 ft 298 kts 242°
2026-05-06 21:13 40.63479 -3.77607 13170 ft 317 kts 241°
2026-05-06 21:13 40.62406 -3.80234 13296 ft 335 kts 240°
2026-05-06 21:14 40.61276 -3.82976 13610 ft 345 kts 240°
2026-05-06 21:14 40.60127 -3.85771 14113 ft 349 kts 241°
2026-05-06 21:14 40.58978 -3.88599 14658 ft 352 kts 241°
2026-05-06 21:14 40.57830 -3.91449 15206 ft 354 kts 242°
2026-05-06 21:15 40.56677 -3.94319 15739 ft 355 kts 242°
2026-05-06 21:15 40.55522 -3.97196 16237 ft 358 kts 242°
2026-05-06 21:15 40.54359 -4.00097 16750 ft 360 kts 242°
2026-05-06 21:15 40.53203 -4.02978 17227 ft 361 kts 242°
2026-05-06 21:16 40.52012 -4.05941 17731 ft 363 kts 242°
2026-05-06 21:16 40.50846 -4.08836 18177 ft 365 kts 242°
2026-05-06 21:16 40.49658 -4.11787 18632 ft 367 kts 242°
2026-05-06 21:16 40.48460 -4.14760 19052 ft 368 kts 242°
2026-05-06 21:17 40.47260 -4.17735 19470 ft 370 kts 242°
2026-05-06 21:17 40.46046 -4.20729 19850 ft 372 kts 242°
2026-05-06 21:17 40.44821 -4.23741 20228 ft 374 kts 242°
2026-05-06 21:17 40.43592 -4.26758 20588 ft 376 kts 242°
2026-05-06 21:18 40.42358 -4.29795 20941 ft 378 kts 242°
2026-05-06 21:18 40.41119 -4.32845 21301 ft 380 kts 242°
2026-05-06 21:18 40.39875 -4.35909 21638 ft 381 kts 242°
2026-05-06 21:18 40.38626 -4.38988 21992 ft 383 kts 242°
2026-05-06 21:19 40.37369 -4.42079 22316 ft 385 kts 242°
2026-05-06 21:19 40.36104 -4.45182 22648 ft 387 kts 242°
2026-05-06 21:19 40.34831 -4.48300 22980 ft 389 kts 242°
2026-05-06 21:19 40.33552 -4.51427 23299 ft 391 kts 242°
2026-05-06 21:20 40.32260 -4.54580 23614 ft 393 kts 242°
2026-05-06 21:20 40.31400 -4.56673 23829 ft 394 kts 242°
2026-05-06 21:20 40.29657 -4.60916 24274 ft 397 kts 242°
2026-05-06 21:20 40.28364 -4.64061 24597 ft 398 kts 241°
2026-05-06 21:21 40.27051 -4.67251 24923 ft 399 kts 242°
2026-05-06 21:21 40.25731 -4.70454 25238 ft 401 kts 241°
2026-05-06 21:21 40.24403 -4.73677 25557 ft 402 kts 241°
2026-05-06 21:21 40.23070 -4.76909 25845 ft 404 kts 241°
2026-05-06 21:22 40.21726 -4.80159 26134 ft 406 kts 241°
2026-05-06 21:22 40.20384 -4.83406 26409 ft 407 kts 241°
2026-05-06 21:22 40.19036 -4.86671 26720 ft 408 kts 241°
2026-05-06 21:22 40.17679 -4.89951 27001 ft 410 kts 241°
2026-05-06 21:23 40.16320 -4.93231 27274 ft 411 kts 241°
2026-05-06 21:23 40.14952 -4.96525 27537 ft 413 kts 241°
2026-05-06 21:23 40.13578 -4.99833 27805 ft 414 kts 241°
2026-05-06 21:23 40.12202 -5.03147 28059 ft 416 kts 241°
2026-05-06 21:24 40.10819 -5.06470 28310 ft 417 kts 241°
2026-05-06 21:24 40.09429 -5.09803 28583 ft 418 kts 241°
2026-05-06 21:24 40.08505 -5.12016 28743 ft 419 kts 241°
2026-05-06 21:24 40.07106 -5.15363 28986 ft 420 kts 241°
2026-05-06 21:25 40.05699 -5.18726 29204 ft 422 kts 241°
2026-05-06 21:25 40.04290 -5.22091 29412 ft 423 kts 241°
2026-05-06 21:25 40.02875 -5.25466 29611 ft 425 kts 241°
2026-05-06 21:25 40.01457 -5.28847 29805 ft 425 kts 241°
2026-05-06 21:26 40.00037 -5.32236 29994 ft 426 kts 241°
2026-05-06 21:26 39.98610 -5.35640 30178 ft 427 kts 241°
2026-05-06 21:26 39.97184 -5.39034 30409 ft 426 kts 241°
2026-05-06 21:26 39.95762 -5.42413 30680 ft 424 kts 241°
2026-05-06 21:27 39.94341 -5.45778 30923 ft 424 kts 241°
2026-05-06 21:27 39.92919 -5.49137 31161 ft 423 kts 241°
2026-05-06 21:27 39.91498 -5.52493 31398 ft 422 kts 241°
2026-05-06 21:27 39.90104 -5.55786 31624 ft 421 kts 241°
2026-05-06 21:28 39.88688 -5.59133 31863 ft 420 kts 241°
2026-05-06 21:28 39.87277 -5.62466 32081 ft 420 kts 241°
2026-05-06 21:28 39.85865 -5.65791 32312 ft 419 kts 241°
2026-05-06 21:28 39.84453 -5.69109 32543 ft 418 kts 241°
2026-05-06 21:29 39.83044 -5.72415 32783 ft 417 kts 241°
2026-05-06 21:29 39.81637 -5.75715 32910 ft 415 kts 241°
2026-05-06 21:29 39.80253 -5.78963 32934 ft 407 kts 241°
2026-05-06 21:30 39.77525 -5.85362 32932 ft 403 kts 241°
2026-05-06 21:30 39.74804 -5.91724 32924 ft 403 kts 241°
2026-05-06 21:31 39.72087 -5.98056 32933 ft 403 kts 241°
2026-05-06 21:31 39.69359 -6.04406 32932 ft 402 kts 241°
2026-05-06 21:32 39.66630 -6.10750 32929 ft 403 kts 241°
2026-05-06 21:32 39.62524 -6.20266 32931 ft 403 kts 241°
2026-05-06 21:33 39.59789 -6.26564 32934 ft 403 kts 241°
2026-05-06 21:33 39.57040 -6.32899 32938 ft 403 kts 241°
2026-05-06 21:34 39.54286 -6.39241 32940 ft 403 kts 240°
2026-05-06 21:34 39.51557 -6.45585 32943 ft 403 kts 242°
2026-05-06 21:35 39.49046 -6.52069 32943 ft 403 kts 244°
2026-05-06 21:35 39.46623 -6.58600 32944 ft 402 kts 244°
2026-05-06 21:36 39.44169 -6.65100 32943 ft 402 kts 243°
2026-05-06 21:36 39.41681 -6.71565 32940 ft 401 kts 243°
2026-05-06 21:37 39.39202 -6.77978 32934 ft 401 kts 243°
2026-05-06 21:37 39.36707 -6.84431 32930 ft 401 kts 243°
2026-05-06 21:38 39.34206 -6.90878 32932 ft 401 kts 243°
2026-05-06 21:38 39.31702 -6.97321 32933 ft 401 kts 243°
2026-05-06 21:39 39.29197 -7.03755 32935 ft 401 kts 243°
2026-05-06 21:39 39.26690 -7.10194 32932 ft 401 kts 243°
2026-05-06 21:40 39.24179 -7.16616 32931 ft 401 kts 242°
2026-05-06 21:40 39.22920 -7.19832 32594 ft 403 kts 242°
2026-05-06 21:40 39.21651 -7.23072 31872 ft 404 kts 242°
2026-05-06 21:41 39.20372 -7.26276 31341 ft 400 kts 242°
2026-05-06 21:41 39.19083 -7.29443 30805 ft 396 kts 241°
2026-05-06 21:41 39.17800 -7.32567 30271 ft 392 kts 241°
2026-05-06 21:41 39.16526 -7.35654 29756 ft 389 kts 241°
2026-05-06 21:42 39.15265 -7.38715 29229 ft 385 kts 241°
2026-05-06 21:42 39.14018 -7.41746 28720 ft 381 kts 241°
2026-05-06 21:42 39.12788 -7.44748 28215 ft 377 kts 241°
2026-05-06 21:42 39.11568 -7.47718 27710 ft 373 kts 241°
2026-05-06 21:43 39.10364 -7.50651 27240 ft 368 kts 241°
2026-05-06 21:43 39.09178 -7.53543 26757 ft 363 kts 241°
2026-05-06 21:43 39.08008 -7.56395 26300 ft 357 kts 241°
2026-05-06 21:43 39.06869 -7.59163 25859 ft 352 kts 241°
2026-05-06 21:44 39.05727 -7.61925 25430 ft 347 kts 241°
2026-05-06 21:44 39.04598 -7.64652 25027 ft 342 kts 241°
2026-05-06 21:44 39.03506 -7.67353 24917 ft 348 kts 242°
2026-05-06 21:44 39.02409 -7.70196 24936 ft 361 kts 243°
2026-05-06 21:45 39.01302 -7.73136 24935 ft 367 kts 243°
2026-05-06 21:45 39.00196 -7.76093 24932 ft 365 kts 243°
2026-05-06 21:45 38.99122 -7.78954 24901 ft 348 kts 243°
2026-05-06 21:45 38.98062 -7.81758 24080 ft 354 kts 243°
2026-05-06 21:46 38.96966 -7.84633 23206 ft 361 kts 243°
2026-05-06 21:46 38.95858 -7.87534 22542 ft 361 kts 243°
2026-05-06 21:46 38.94755 -7.90412 21957 ft 359 kts 243°
2026-05-06 21:46 38.93656 -7.93278 21413 ft 356 kts 243°
2026-05-06 21:47 38.92564 -7.96124 20935 ft 352 kts 242°
2026-05-06 21:47 38.91507 -7.98885 20787 ft 338 kts 243°
2026-05-06 21:47 38.90440 -8.01512 20580 ft 327 kts 236°
2026-05-06 21:47 38.89071 -8.03792 20337 ft 319 kts 229°
2026-05-06 21:48 38.87663 -8.05946 20048 ft 319 kts 230°
2026-05-06 21:48 38.86250 -8.08124 19787 ft 318 kts 230°
2026-05-06 21:48 38.84840 -8.10305 19538 ft 316 kts 230°
2026-05-06 21:48 38.83437 -8.12475 19287 ft 315 kts 230°
2026-05-06 21:49 38.82040 -8.14633 19033 ft 314 kts 230°
2026-05-06 21:49 38.80649 -8.16781 18784 ft 312 kts 230°
2026-05-06 21:49 38.79264 -8.18920 18533 ft 311 kts 230°
2026-05-06 21:49 38.77880 -8.21050 18269 ft 311 kts 229°
2026-05-06 21:50 38.76499 -8.23172 18018 ft 310 kts 229°
2026-05-06 21:50 38.75123 -8.25285 17781 ft 308 kts 229°
2026-05-06 21:50 38.73752 -8.27390 17530 ft 307 kts 229°
2026-05-06 21:50 38.72387 -8.29488 17274 ft 306 kts 230°
2026-05-06 21:51 38.71225 -8.31770 17031 ft 306 kts 238°
2026-05-06 21:51 38.70162 -8.34119 16777 ft 305 kts 239°
2026-05-06 21:51 38.69116 -8.36438 16547 ft 301 kts 239°
2026-05-06 21:51 38.68087 -8.38726 16260 ft 294 kts 239°
2026-05-06 21:52 38.67072 -8.40980 15919 ft 290 kts 238°
2026-05-06 21:52 38.66070 -8.43205 15575 ft 286 kts 238°
2026-05-06 21:52 38.65082 -8.45396 15234 ft 282 kts 238°
2026-05-06 21:52 38.64109 -8.47557 14896 ft 279 kts 238°
2026-05-06 21:53 38.63145 -8.49693 14566 ft 276 kts 238°
2026-05-06 21:53 38.62191 -8.51800 14300 ft 269 kts 238°
2026-05-06 21:53 38.61265 -8.53841 14056 ft 263 kts 238°
2026-05-06 21:53 38.60352 -8.55853 13735 ft 261 kts 238°
2026-05-06 21:54 38.59444 -8.57854 13365 ft 259 kts 238°
2026-05-06 21:54 38.58551 -8.59817 13008 ft 258 kts 238°
2026-05-06 21:54 38.57652 -8.61794 12653 ft 257 kts 238°
2026-05-06 21:54 38.56755 -8.63768 12283 ft 256 kts 238°
2026-05-06 21:55 38.55864 -8.65731 11909 ft 255 kts 238°
2026-05-06 21:55 38.54975 -8.67691 11536 ft 254 kts 238°
2026-05-06 21:55 38.54088 -8.69640 11148 ft 254 kts 238°
2026-05-06 21:55 38.53202 -8.71587 10747 ft 254 kts 238°
2026-05-06 21:56 38.52316 -8.73536 10342 ft 254 kts 238°
2026-05-06 21:56 38.51429 -8.75485 9919 ft 254 kts 239°
2026-05-06 21:56 38.50539 -8.77436 9516 ft 254 kts 239°
2026-05-06 21:56 38.49647 -8.79388 9103 ft 255 kts 239°
2026-05-06 21:57 38.48752 -8.81342 8703 ft 255 kts 239°
2026-05-06 21:57 38.47859 -8.83297 8307 ft 255 kts 239°
2026-05-06 21:57 38.46969 -8.85247 7933 ft 254 kts 239°
2026-05-06 21:57 38.46084 -8.87189 7593 ft 251 kts 239°
2026-05-06 21:58 38.45218 -8.89081 7468 ft 252 kts 239°
2026-05-06 21:58 38.44334 -8.91006 7347 ft 253 kts 240°
2026-05-06 21:58 38.43445 -8.92941 7218 ft 252 kts 240°
2026-05-06 21:58 38.42569 -8.94852 7138 ft 251 kts 240°
2026-05-06 21:59 38.41686 -8.96788 7086 ft 251 kts 242°
2026-05-06 21:59 38.41190 -8.98893 6995 ft 249 kts 268°
2026-05-06 21:59 38.41454 -9.01063 6788 ft 249 kts 294°
2026-05-06 21:59 38.42390 -9.02890 6530 ft 246 kts 309°
2026-05-06 22:00 38.43457 -9.04591 6290 ft 246 kts 309°
2026-05-06 22:00 38.44515 -9.06295 6040 ft 244 kts 308°
2026-05-06 22:00 38.45562 -9.07992 5786 ft 243 kts 308°
2026-05-06 22:00 38.46601 -9.09680 5534 ft 241 kts 308°
2026-05-06 22:01 38.47617 -9.11332 5298 ft 237 kts 309°
2026-05-06 22:01 38.48617 -9.12954 5051 ft 228 kts 309°
2026-05-06 22:01 38.49581 -9.14523 4809 ft 220 kts 309°
2026-05-06 22:01 38.50497 -9.16017 4712 ft 204 kts 309°
2026-05-06 22:02 38.51338 -9.17397 4623 ft 191 kts 309°
2026-05-06 22:02 38.52147 -9.18719 4554 ft 187 kts 309°
2026-05-06 22:02 38.52962 -9.20001 4467 ft 186 kts 316°
2026-05-06 22:02 38.54017 -9.20923 4343 ft 185 kts 336°
2026-05-06 22:03 38.55203 -9.21539 4184 ft 183 kts 338°
2026-05-06 22:03 38.56378 -9.22162 4019 ft 183 kts 337°
2026-05-06 22:03 38.57535 -9.22779 3864 ft 182 kts 337°
2026-05-06 22:03 38.58723 -9.23292 3704 ft 178 kts 350°
2026-05-06 22:04 38.59920 -9.23242 3544 ft 169 kts 11°
2026-05-06 22:04 38.61002 -9.22728 3407 ft 163 kts 20°
2026-05-06 22:04 38.62038 -9.22177 3337 ft 161 kts 19°
2026-05-06 22:04 38.63072 -9.21628 3178 ft 160 kts 19°
2026-05-06 22:05 38.64097 -9.21082 2980 ft 159 kts 19°
2026-05-06 22:05 38.65121 -9.20537 2773 ft 160 kts 18°
2026-05-06 22:05 38.66150 -9.19988 2564 ft 159 kts 19°
2026-05-06 22:05 38.67156 -9.19452 2356 ft 157 kts 19°
2026-05-06 22:06 38.68164 -9.18916 2150 ft 156 kts 19°
2026-05-06 22:06 38.69162 -9.18384 1957 ft 153 kts 19°
2026-05-06 22:06 38.70116 -9.17874 1744 ft 146 kts 19°
2026-05-06 22:06 38.71042 -9.17380 1532 ft 143 kts 19°
2026-05-06 22:07 38.71929 -9.16907 1344 ft 142 kts 18°
2026-05-06 22:07 38.72861 -9.16408 1148 ft 143 kts 19°
2026-05-06 22:07 38.73775 -9.15925 978 ft 142 kts 19°
2026-05-06 22:07 38.74678 -9.15438 770 ft 141 kts 19°
2026-05-06 22:08 38.75554 -9.14969 625 ft 142 kts 20°
2026-05-06 22:08 38.76490 -9.14468 412 ft 142 kts 19°
2026-05-06 22:08 38.77366 -9.14006 361 ft 119 kts 23°
2026-05-06 22:08 38.77947 -9.13691 364 ft 66 kts 22°
2026-05-06 22:09 38.78204 -9.13545 368 ft 28 kts 30°
2026-05-06 22:09 38.78342 -9.13392 364 ft 17 kts 49°
2026-05-06 22:09 38.78368 -9.13287 361 ft 13 kts 124°
2026-05-06 22:09 38.78285 -9.13283 359 ft 13 kts 200°
2026-05-06 22:10 38.78202 -9.13326 363 ft 13 kts 202°
2026-05-06 22:10 38.78122 -9.13368 359 ft 12 kts 202°
2026-05-06 22:10 38.78047 -9.13408 358 ft 11 kts 201°
2026-05-06 22:10 38.77965 -9.13402 354 ft 13 kts 170°
2026-05-06 22:11 38.77863 -9.13373 348 ft 16 kts 167°
2026-05-06 22:11 38.77742 -9.13341 344 ft 20 kts 170°
2026-05-06 22:11 38.77600 -9.13320 335 ft 20 kts 177°
2026-05-06 22:11 38.77467 -9.13290 336 ft 19 kts 167°
2026-05-06 22:12 38.77343 -9.13260 335 ft 18 kts 170°
2026-05-06 22:12 38.77229 -9.13233 337 ft 16 kts 168°
2026-05-06 22:12 38.77164 -9.13214 335 ft 7 kts 157°
2026-05-06 22:12 38.77155 -9.13160 334 ft 7 kts 81°
2026-05-06 22:13 38.77158 -9.13135 337 ft 2 kts 79°
2026-05-06 22:13 38.77159 -9.13129 333 ft 0 kts 79°